DWI45 SBSG-SCEL

Flight info

Callsign DWI45
Flight time N/A
Altitude 28000
Route OPVAR UZ94 PUMDI UN741 DEVET/N0504F300 UN741 GEVMI UM654 ANSOK UZ65 FOZ UL531 KONTO/N0499F320 UL531 CBA UZ105 ALDEX UL531 SOLER UZ105 UMKAL UMKAL7B
Aircraft B763/H-SDE3FGHIM3RWXY/LB1

Departure

Time 2026-05-05 17:30
Airport Rio Grande do Norte/São Gonçalo do Amarante–Governador Aluízio Alves International Airport (SBSG)

Arrival

Time N/A
Airport Comodoro Arturo Merino Benítez International Airport (SCEL)
Time Latitude Longitude Altitude Speed Heading
2026-05-05 16:55 -5.76494 -35.36957 292 ft 0 kts 10°
2026-05-05 17:22 -5.76511 -35.36960 291 ft 2 kts 10°
2026-05-05 17:22 -5.76526 -35.36962 291 ft 2 kts 10°
2026-05-05 17:22 -5.76541 -35.36965 291 ft 2 kts 10°
2026-05-05 17:22 -5.76551 -35.36967 291 ft 1 kts 10°
2026-05-05 17:23 -5.76565 -35.36966 291 ft 2 kts 334°
2026-05-05 17:23 -5.76577 -35.36957 291 ft 2 kts 302°
2026-05-05 17:23 -5.76581 -35.36948 291 ft 0 kts 279°
2026-05-05 17:23 -5.76582 -35.36943 291 ft 0 kts 279°
2026-05-05 17:26 -5.76582 -35.36944 291 ft 0 kts 279°
2026-05-05 17:26 -5.76581 -35.36950 291 ft 4 kts 279°
2026-05-05 17:27 -5.76571 -35.37014 291 ft 12 kts 281°
2026-05-05 17:27 -5.76551 -35.37128 291 ft 20 kts 279°
2026-05-05 17:27 -5.76561 -35.37221 291 ft 13 kts 217°
2026-05-05 17:27 -5.76673 -35.37269 291 ft 19 kts 231°
2026-05-05 17:28 -5.76685 -35.37433 291 ft 28 kts 276°
2026-05-05 17:28 -5.76659 -35.37658 291 ft 37 kts 278°
2026-05-05 17:28 -5.76622 -35.37862 291 ft 14 kts 280°
2026-05-05 17:28 -5.76659 -35.37956 291 ft 13 kts 215°
2026-05-05 17:29 -5.76760 -35.37947 291 ft 17 kts 128°
2026-05-05 17:29 -5.76800 -35.37800 291 ft 26 kts 100°
2026-05-05 17:29 -5.76855 -35.37478 291 ft 79 kts 98°
2026-05-05 17:29 -5.76985 -35.36695 291 ft 144 kts 98°
2026-05-05 17:30 -5.77157 -35.35548 628 ft 173 kts 100°
2026-05-05 17:30 -5.77283 -35.34447 1595 ft 156 kts 103°
2026-05-05 17:30 -5.77261 -35.33379 1867 ft 165 kts 70°
2026-05-05 17:30 -5.76400 -35.32505 1939 ft 190 kts 23°
2026-05-05 17:31 -5.75027 -35.32445 2106 ft 208 kts 341°
2026-05-05 17:31 -5.73834 -35.33302 2252 ft 221 kts 301°
2026-05-05 17:31 -5.73374 -35.34697 2809 ft 194 kts 270°
2026-05-05 17:31 -5.73184 -35.35870 3462 ft 170 kts 279°
2026-05-05 17:32 -5.72843 -35.37127 3294 ft 197 kts 284°
2026-05-05 17:32 -5.72392 -35.38474 3355 ft 214 kts 287°
2026-05-05 17:32 -5.71845 -35.39962 3334 ft 239 kts 289°
2026-05-05 17:32 -5.71194 -35.41630 3217 ft 272 kts 290°
2026-05-05 17:33 -5.70446 -35.43482 3312 ft 293 kts 290°
2026-05-05 17:33 -5.69669 -35.45374 3942 ft 293 kts 291°
2026-05-05 17:33 -5.68895 -35.47255 4532 ft 296 kts 290°
2026-05-05 17:33 -5.68476 -35.49276 5154 ft 296 kts 264°
2026-05-05 17:34 -5.68824 -35.51296 5734 ft 296 kts 254°
2026-05-05 17:34 -5.69290 -35.53301 6307 ft 300 kts 255°
2026-05-05 17:34 -5.69774 -35.55340 6898 ft 303 kts 254°
2026-05-05 17:34 -5.70281 -35.57408 7510 ft 305 kts 254°
2026-05-05 17:35 -5.70798 -35.59494 8102 ft 309 kts 254°
2026-05-05 17:35 -5.71321 -35.61585 8738 ft 310 kts 255°
2026-05-05 17:35 -5.71843 -35.63664 9305 ft 314 kts 255°
2026-05-05 17:35 -5.72377 -35.65789 9944 ft 315 kts 255°
2026-05-05 17:36 -5.72916 -35.67927 10417 ft 324 kts 255°
2026-05-05 17:36 -5.73489 -35.70200 10628 ft 341 kts 255°
2026-05-05 17:36 -5.74083 -35.72557 10917 ft 357 kts 255°
2026-05-05 17:36 -5.74703 -35.75019 11172 ft 373 kts 255°
2026-05-05 17:37 -5.75348 -35.77582 11403 ft 389 kts 255°
2026-05-05 17:37 -5.76033 -35.80300 11617 ft 406 kts 255°
2026-05-05 17:37 -5.76725 -35.83049 12199 ft 410 kts 255°
2026-05-05 17:37 -5.77429 -35.85846 12793 ft 413 kts 255°
2026-05-05 17:38 -5.78129 -35.88631 13307 ft 418 kts 255°
2026-05-05 17:38 -5.78839 -35.91450 13945 ft 419 kts 255°
2026-05-05 17:38 -5.79557 -35.94303 14452 ft 423 kts 255°
2026-05-05 17:38 -5.80277 -35.97167 15015 ft 426 kts 255°
2026-05-05 17:39 -5.81005 -36.00061 15577 ft 427 kts 255°
2026-05-05 17:39 -5.81732 -36.02953 16055 ft 431 kts 255°
2026-05-05 17:39 -5.82463 -36.05863 16583 ft 433 kts 255°
2026-05-05 17:39 -5.83207 -36.08824 17057 ft 436 kts 255°
2026-05-05 17:40 -5.83946 -36.11762 17528 ft 438 kts 255°
2026-05-05 17:40 -5.84694 -36.14743 17987 ft 441 kts 255°
2026-05-05 17:40 -5.85444 -36.17728 18429 ft 443 kts 255°
2026-05-05 17:40 -5.86300 -36.20694 18889 ft 445 kts 249°
2026-05-05 17:41 -5.87621 -36.23490 19308 ft 447 kts 239°
2026-05-05 17:41 -5.89266 -36.26144 19665 ft 450 kts 238°
2026-05-05 17:41 -5.90924 -36.28862 20058 ft 453 kts 238°
2026-05-05 17:41 -5.92588 -36.31552 20450 ft 456 kts 238°
2026-05-05 17:42 -5.94265 -36.34262 20891 ft 456 kts 238°
2026-05-05 17:42 -5.95928 -36.36943 21200 ft 460 kts 238°
2026-05-05 17:42 -5.97640 -36.39701 21559 ft 462 kts 238°
2026-05-05 17:42 -5.99335 -36.42427 21967 ft 463 kts 238°
2026-05-05 17:43 -6.01056 -36.45195 22278 ft 466 kts 238°
2026-05-05 17:43 -6.02760 -36.47937 22620 ft 467 kts 238°
2026-05-05 17:43 -6.04495 -36.50729 22992 ft 468 kts 238°
2026-05-05 17:43 -6.06227 -36.53514 23301 ft 470 kts 238°
2026-05-05 17:44 -6.07949 -36.56285 23612 ft 472 kts 238°
2026-05-05 17:44 -6.09698 -36.59100 23956 ft 473 kts 238°
2026-05-05 17:44 -6.11542 -36.61848 24225 ft 475 kts 232°
2026-05-05 17:44 -6.13665 -36.64389 24466 ft 477 kts 230°
2026-05-05 17:45 -6.15768 -36.66949 24797 ft 477 kts 231°
2026-05-05 17:45 -6.17890 -36.69507 25101 ft 478 kts 231°
2026-05-05 17:45 -6.20036 -36.72100 25355 ft 479 kts 230°
2026-05-05 17:45 -6.22153 -36.74652 25633 ft 480 kts 231°
2026-05-05 17:46 -6.24303 -36.77242 25877 ft 481 kts 231°
2026-05-05 17:46 -6.26460 -36.79842 26123 ft 482 kts 231°
2026-05-05 17:46 -6.28604 -36.82420 26355 ft 483 kts 231°
2026-05-05 17:46 -6.30751 -36.85008 26572 ft 484 kts 231°
2026-05-05 17:47 -6.32920 -36.87623 26779 ft 485 kts 231°
2026-05-05 17:47 -6.35089 -36.90238 26978 ft 486 kts 231°
2026-05-05 17:47 -6.37244 -36.92836 27205 ft 486 kts 231°
2026-05-05 17:47 -6.39418 -36.95459 27517 ft 484 kts 231°
2026-05-05 17:48 -6.41563 -36.98054 27796 ft 483 kts 231°
2026-05-05 17:48 -6.43692 -37.00629 27945 ft 480 kts 231°
2026-05-05 17:48 -6.45846 -37.03237 27929 ft 480 kts 231°
2026-05-05 17:48 -6.47972 -37.05811 27939 ft 480 kts 231°
2026-05-05 17:49 -6.50095 -37.08383 27927 ft 481 kts 231°
2026-05-05 17:49 -6.52229 -37.10968 27936 ft 481 kts 231°
2026-05-05 17:49 -6.54382 -37.13574 27932 ft 481 kts 231°
2026-05-05 17:49 -6.56525 -37.16169 27936 ft 480 kts 231°
2026-05-05 17:50 -6.58656 -37.18753 27940 ft 480 kts 231°
2026-05-05 17:50 -6.60775 -37.21320 27943 ft 480 kts 231°
2026-05-05 17:50 -6.62914 -37.23913 27942 ft 479 kts 231°
2026-05-05 17:50 -6.65031 -37.26479 27945 ft 479 kts 231°
2026-05-05 17:51 -6.67167 -37.29068 27949 ft 479 kts 231°
2026-05-05 17:51 -6.69297 -37.31650 27956 ft 479 kts 231°
2026-05-05 17:51 -6.71426 -37.34233 27961 ft 479 kts 231°
2026-05-05 17:51 -6.73544 -37.36802 27967 ft 479 kts 231°
2026-05-05 17:52 -6.75666 -37.39376 27972 ft 479 kts 231°
2026-05-05 17:52 -6.77803 -37.41968 27977 ft 480 kts 231°
2026-05-05 17:52 -6.79943 -37.44564 27972 ft 480 kts 231°
2026-05-05 17:52 -6.82086 -37.47166 27974 ft 480 kts 231°
2026-05-05 17:53 -6.84218 -37.49754 27974 ft 480 kts 231°
2026-05-05 17:53 -6.86321 -37.52306 27968 ft 480 kts 231°
2026-05-05 17:53 -6.88452 -37.54906 27962 ft 480 kts 232°
2026-05-05 17:53 -6.90455 -37.57593 27963 ft 481 kts 234°
2026-05-05 17:54 -6.92477 -37.60317 27958 ft 480 kts 234°
2026-05-05 17:54 -6.94465 -37.63003 27955 ft 480 kts 234°
2026-05-05 17:54 -6.96461 -37.65695 27944 ft 479 kts 234°
2026-05-05 17:54 -6.98470 -37.68403 27948 ft 479 kts 234°
2026-05-05 17:55 -7.00459 -37.71085 27949 ft 479 kts 234°
2026-05-05 17:55 -7.02435 -37.73747 27960 ft 479 kts 234°
2026-05-05 17:55 -7.04442 -37.76453 27959 ft 479 kts 234°
2026-05-05 17:55 -7.06431 -37.79134 27963 ft 479 kts 234°
2026-05-05 17:56 -7.08407 -37.81798 27958 ft 479 kts 234°
2026-05-05 17:56 -7.10412 -37.84502 27961 ft 479 kts 234°
2026-05-05 17:56 -7.12410 -37.87197 27955 ft 480 kts 234°
2026-05-05 17:56 -7.14395 -37.89873 27958 ft 480 kts 233°
2026-05-05 17:57 -7.16413 -37.92588 27952 ft 479 kts 232°
2026-05-05 17:57 -7.18576 -37.95103 27963 ft 479 kts 228°
2026-05-05 17:57 -7.20815 -37.97613 27955 ft 480 kts 229°
2026-05-05 17:57 -7.23025 -38.00111 27958 ft 481 kts 229°
2026-05-05 17:58 -7.25272 -38.02659 27962 ft 481 kts 229°
2026-05-05 17:58 -7.27475 -38.05155 27962 ft 479 kts 229°
2026-05-05 17:58 -7.29679 -38.07656 27978 ft 478 kts 229°
2026-05-05 17:58 -7.31910 -38.10189 27985 ft 479 kts 229°
2026-05-05 17:59 -7.34119 -38.12697 27993 ft 480 kts 229°
2026-05-05 17:59 -7.36314 -38.15190 27997 ft 480 kts 229°
2026-05-05 17:59 -7.38487 -38.17659 28006 ft 480 kts 229°
2026-05-05 18:00 -7.42928 -38.22706 28004 ft 480 kts 229°
2026-05-05 18:00 -7.47335 -38.27716 28004 ft 481 kts 229°
2026-05-05 18:01 -7.51791 -38.32785 28007 ft 480 kts 229°
2026-05-05 18:01 -7.56219 -38.37823 28023 ft 481 kts 229°
2026-05-05 18:02 -7.60672 -38.42891 28030 ft 481 kts 229°
2026-05-05 18:02 -7.65018 -38.48009 28048 ft 479 kts 231°
2026-05-05 18:03 -7.69259 -38.53179 28047 ft 478 kts 231°
2026-05-05 18:03 -7.73506 -38.58357 28051 ft 479 kts 231°
2026-05-05 18:04 -7.77723 -38.63500 28044 ft 478 kts 231°
2026-05-05 18:04 -7.81973 -38.68686 28032 ft 477 kts 231°
2026-05-05 18:05 -7.86214 -38.73859 28019 ft 478 kts 231°
2026-05-05 18:05 -7.90428 -38.79002 28012 ft 478 kts 231°
2026-05-05 18:06 -7.94668 -38.84180 28013 ft 477 kts 231°
2026-05-05 18:06 -7.98899 -38.89350 28016 ft 477 kts 231°
2026-05-05 18:07 -8.03117 -38.94529 28021 ft 477 kts 231°
2026-05-05 18:07 -8.07340 -38.99701 28023 ft 477 kts 231°
2026-05-05 18:08 -8.11543 -39.04850 28024 ft 477 kts 231°
2026-05-05 18:08 -8.15775 -39.10036 28019 ft 478 kts 231°
2026-05-05 18:09 -8.20033 -39.15255 28049 ft 483 kts 231°
2026-05-05 18:09 -8.22150 -39.17852 28245 ft 478 kts 231°
2026-05-05 18:09 -8.24237 -39.20412 28583 ft 474 kts 231°
2026-05-05 18:09 -8.26346 -39.22999 28931 ft 471 kts 231°
2026-05-05 18:10 -8.28397 -39.25516 29275 ft 467 kts 231°
2026-05-05 18:10 -8.30472 -39.28064 29626 ft 464 kts 231°
2026-05-05 18:10 -8.32493 -39.30545 29954 ft 460 kts 231°
2026-05-05 18:11 -8.36618 -39.35611 30002 ft 467 kts 231°
2026-05-05 18:11 -8.40755 -39.40691 29995 ft 468 kts 231°
2026-05-05 18:12 -8.44821 -39.45687 29988 ft 454 kts 231°
2026-05-05 18:12 -8.48863 -39.50657 29991 ft 458 kts 231°
2026-05-05 18:13 -8.52900 -39.55620 29992 ft 460 kts 231°
2026-05-05 18:13 -8.56970 -39.60627 29991 ft 458 kts 231°
2026-05-05 18:14 -8.61017 -39.65606 29991 ft 459 kts 231°
2026-05-05 18:14 -8.65091 -39.70623 30000 ft 462 kts 231°
2026-05-05 18:15 -8.69177 -39.75654 29991 ft 467 kts 231°
2026-05-05 18:15 -8.73316 -39.80751 29993 ft 467 kts 231°
2026-05-05 18:16 -8.77431 -39.85823 29998 ft 467 kts 231°
2026-05-05 18:16 -8.81545 -39.90894 30003 ft 466 kts 231°
2026-05-05 18:17 -8.85672 -39.95984 30008 ft 467 kts 231°
2026-05-05 18:17 -8.89783 -40.01055 30004 ft 466 kts 231°
2026-05-05 18:18 -8.93886 -40.06120 29999 ft 466 kts 231°
2026-05-05 18:18 -8.98026 -40.11232 29995 ft 467 kts 231°
2026-05-05 18:19 -9.02113 -40.16279 29991 ft 466 kts 231°
2026-05-05 18:19 -9.06237 -40.21376 29997 ft 465 kts 231°
2026-05-05 18:20 -9.10322 -40.26425 29993 ft 464 kts 231°
2026-05-05 18:20 -9.14419 -40.31491 30002 ft 464 kts 231°
2026-05-05 18:21 -9.18508 -40.36549 30009 ft 464 kts 232°
2026-05-05 18:21 -9.22566 -40.41570 30011 ft 463 kts 231°
2026-05-05 18:22 -9.26664 -40.46644 30019 ft 462 kts 231°
2026-05-05 18:22 -9.30736 -40.51687 30021 ft 464 kts 231°
2026-05-05 18:23 -9.34827 -40.56756 30025 ft 463 kts 231°
2026-05-05 18:23 -9.38893 -40.61794 30027 ft 461 kts 231°
2026-05-05 18:24 -9.42962 -40.66839 30029 ft 461 kts 231°
2026-05-05 18:24 -9.47028 -40.71882 30031 ft 461 kts 231°
2026-05-05 18:25 -9.51098 -40.76934 30027 ft 460 kts 231°
2026-05-05 18:25 -9.55156 -40.81971 30044 ft 461 kts 231°
2026-05-05 18:26 -9.59201 -40.86995 30052 ft 461 kts 231°
2026-05-05 18:26 -9.63267 -40.92047 30068 ft 461 kts 231°
2026-05-05 18:27 -9.67325 -40.97091 30066 ft 460 kts 231°
2026-05-05 18:27 -9.71384 -41.02138 30074 ft 459 kts 231°
2026-05-05 18:28 -9.77435 -41.09667 30079 ft 459 kts 231°
2026-05-05 18:28 -9.81459 -41.14676 30074 ft 459 kts 231°
2026-05-05 18:29 -9.85490 -41.19697 30079 ft 459 kts 231°
2026-05-05 18:29 -9.89856 -41.24434 30098 ft 461 kts 219°
2026-05-05 18:30 -9.95423 -41.27735 30095 ft 462 kts 208°
2026-05-05 18:30 -10.01184 -41.30644 30094 ft 463 kts 207°
2026-05-05 18:31 -10.07006 -41.33544 30100 ft 462 kts 207°
2026-05-05 18:31 -10.12797 -41.36415 30108 ft 461 kts 207°
2026-05-05 18:32 -10.18580 -41.39276 30110 ft 461 kts 207°
2026-05-05 18:32 -10.24361 -41.42134 30114 ft 462 kts 207°
2026-05-05 18:33 -10.30176 -41.45008 30106 ft 461 kts 207°
2026-05-05 18:33 -10.35957 -41.47867 30113 ft 461 kts 207°
2026-05-05 18:34 -10.41728 -41.50721 30125 ft 461 kts 207°
2026-05-05 18:34 -10.47539 -41.53596 30130 ft 461 kts 207°
2026-05-05 18:35 -10.53326 -41.56462 30134 ft 461 kts 207°
2026-05-05 18:35 -10.59091 -41.59317 30116 ft 461 kts 207°
2026-05-05 18:36 -10.64837 -41.62164 30096 ft 459 kts 207°
2026-05-05 18:36 -10.70610 -41.65026 30082 ft 460 kts 207°
2026-05-05 18:37 -10.76378 -41.67886 30075 ft 460 kts 207°
2026-05-05 18:37 -10.82153 -41.70752 30075 ft 459 kts 207°
2026-05-05 18:38 -10.87886 -41.73599 30076 ft 460 kts 207°
2026-05-05 18:38 -10.93661 -41.76467 30082 ft 459 kts 207°
2026-05-05 18:39 -10.99409 -41.79325 30093 ft 458 kts 207°
2026-05-05 18:39 -11.05180 -41.82194 30097 ft 459 kts 207°
2026-05-05 18:40 -11.10918 -41.85048 30095 ft 458 kts 207°
2026-05-05 18:40 -11.16676 -41.87915 30106 ft 457 kts 207°
2026-05-05 18:41 -11.22405 -41.90768 30102 ft 459 kts 207°
2026-05-05 18:41 -11.28153 -41.93631 30092 ft 458 kts 207°
2026-05-05 18:42 -11.33887 -41.96489 30104 ft 458 kts 207°
2026-05-05 18:42 -11.39607 -41.99340 30105 ft 458 kts 207°
2026-05-05 18:43 -11.45347 -42.02203 30118 ft 458 kts 207°
2026-05-05 18:43 -11.51088 -42.05069 30108 ft 456 kts 207°
2026-05-05 18:44 -11.56830 -42.07935 30115 ft 457 kts 207°
2026-05-05 18:44 -11.62563 -42.10799 30136 ft 459 kts 207°
2026-05-05 18:45 -11.68328 -42.13679 30132 ft 459 kts 207°
2026-05-05 18:45 -11.74056 -42.16543 30136 ft 458 kts 207°
2026-05-05 18:46 -11.79773 -42.19401 30147 ft 458 kts 207°
2026-05-05 18:46 -11.85510 -42.22269 30154 ft 457 kts 207°
2026-05-05 18:47 -11.91238 -42.25135 30161 ft 457 kts 207°
2026-05-05 18:47 -11.96996 -42.28016 30161 ft 459 kts 207°
2026-05-05 18:48 -12.02722 -42.30884 30159 ft 457 kts 207°
2026-05-05 18:48 -12.08437 -42.33747 30154 ft 458 kts 207°
2026-05-05 18:49 -12.14218 -42.36644 30148 ft 458 kts 207°
2026-05-05 18:49 -12.19952 -42.39520 30137 ft 458 kts 207°
2026-05-05 18:50 -12.25662 -42.42384 30125 ft 457 kts 207°
2026-05-05 18:50 -12.31373 -42.45251 30114 ft 457 kts 207°
2026-05-05 18:51 -12.37068 -42.48114 30112 ft 457 kts 207°
2026-05-05 18:51 -12.42819 -42.51004 30097 ft 457 kts 207°
2026-05-05 18:52 -12.48529 -42.53876 30087 ft 456 kts 207°
2026-05-05 18:52 -12.54216 -42.56739 30089 ft 456 kts 207°
2026-05-05 18:53 -12.59957 -42.59629 30081 ft 457 kts 207°
2026-05-05 18:53 -12.65667 -42.62505 30100 ft 455 kts 207°
2026-05-05 18:54 -12.71381 -42.65385 30092 ft 456 kts 208°
2026-05-05 18:54 -12.77071 -42.68253 30091 ft 456 kts 207°
2026-05-05 18:55 -12.82773 -42.71130 30113 ft 454 kts 208°
2026-05-05 18:55 -12.88434 -42.73988 30138 ft 455 kts 207°
2026-05-05 18:56 -12.94122 -42.76860 30147 ft 453 kts 207°
2026-05-05 18:56 -12.99814 -42.79736 30170 ft 453 kts 208°
2026-05-05 18:57 -13.05498 -42.82610 30161 ft 453 kts 207°
2026-05-05 18:57 -13.11148 -42.85468 30154 ft 453 kts 207°
2026-05-05 18:58 -13.16840 -42.88348 30142 ft 455 kts 207°
2026-05-05 18:58 -13.22520 -42.91224 30125 ft 454 kts 208°
2026-05-05 18:59 -13.28189 -42.94095 30112 ft 455 kts 208°
2026-05-05 18:59 -13.33707 -42.96892 30100 ft 454 kts 207°
2026-05-05 19:00 -13.39404 -42.99781 30099 ft 454 kts 208°
2026-05-05 19:00 -13.45078 -43.02660 30093 ft 453 kts 208°
2026-05-05 19:01 -13.50743 -43.05536 30085 ft 454 kts 207°
2026-05-05 19:01 -13.56404 -43.08411 30075 ft 453 kts 207°
2026-05-05 19:02 -13.62075 -43.11293 30077 ft 455 kts 207°
2026-05-05 19:02 -13.67785 -43.14196 30063 ft 455 kts 207°
2026-05-05 19:03 -13.73462 -43.17084 30071 ft 454 kts 207°
2026-05-05 19:03 -13.79118 -43.19963 30060 ft 454 kts 207°
2026-05-05 19:04 -13.84830 -43.22871 30065 ft 454 kts 208°
2026-05-05 19:04 -13.90504 -43.25763 30063 ft 453 kts 208°
2026-05-05 19:05 -13.96170 -43.28651 30066 ft 454 kts 208°
2026-05-05 19:05 -14.01857 -43.31536 30070 ft 455 kts 207°
2026-05-05 19:06 -14.07555 -43.34404 30081 ft 454 kts 207°
2026-05-05 19:06 -14.13255 -43.37275 30079 ft 454 kts 207°
2026-05-05 19:07 -14.18953 -43.40147 30079 ft 454 kts 207°
2026-05-05 19:07 -14.24670 -43.43029 30087 ft 454 kts 207°
2026-05-05 19:08 -14.30344 -43.45892 30086 ft 454 kts 207°
2026-05-05 19:08 -14.36067 -43.48782 30098 ft 455 kts 207°
2026-05-05 19:09 -14.41751 -43.51653 30094 ft 455 kts 207°
2026-05-05 19:09 -14.47460 -43.54538 30108 ft 455 kts 207°
2026-05-05 19:10 -14.53148 -43.57415 30108 ft 455 kts 207°
2026-05-05 19:10 -14.58843 -43.60296 30108 ft 454 kts 207°
2026-05-05 19:11 -14.64532 -43.63176 30103 ft 455 kts 207°
2026-05-05 19:11 -14.70255 -43.66076 30111 ft 455 kts 207°
2026-05-05 19:12 -14.75944 -43.68959 30100 ft 455 kts 208°
2026-05-05 19:12 -14.81656 -43.71856 30108 ft 454 kts 207°
2026-05-05 19:13 -14.87352 -43.74747 30100 ft 455 kts 208°
2026-05-05 19:13 -14.93039 -43.77634 30110 ft 456 kts 208°
2026-05-05 19:14 -14.98757 -43.80540 30112 ft 454 kts 208°
2026-05-05 19:14 -15.04463 -43.83398 30111 ft 455 kts 207°
2026-05-05 19:15 -15.10195 -43.86235 30116 ft 456 kts 207°
2026-05-05 19:15 -15.15959 -43.89090 30120 ft 456 kts 207°
2026-05-05 19:16 -15.21712 -43.91942 30122 ft 456 kts 207°
2026-05-05 19:16 -15.27462 -43.94793 30125 ft 456 kts 207°
2026-05-05 19:17 -15.33175 -43.97627 30133 ft 456 kts 207°
2026-05-05 19:17 -15.38921 -44.00481 30139 ft 455 kts 207°
2026-05-05 19:18 -15.44677 -44.03339 30147 ft 456 kts 207°
2026-05-05 19:18 -15.50434 -44.06202 30158 ft 457 kts 207°
2026-05-05 19:19 -15.56202 -44.09071 30160 ft 457 kts 207°
2026-05-05 19:19 -15.61949 -44.11932 30161 ft 457 kts 207°
2026-05-05 19:20 -15.67698 -44.14796 30166 ft 457 kts 207°
2026-05-05 19:20 -15.73446 -44.17660 30169 ft 457 kts 207°
2026-05-05 19:21 -15.79211 -44.20535 30174 ft 456 kts 207°
2026-05-05 19:21 -15.84917 -44.23381 30178 ft 456 kts 207°
2026-05-05 19:22 -15.90680 -44.26260 30189 ft 457 kts 207°
2026-05-05 19:22 -15.96438 -44.29136 30183 ft 458 kts 207°
2026-05-05 19:23 -16.02221 -44.32028 30186 ft 457 kts 207°
2026-05-05 19:23 -16.07968 -44.34903 30187 ft 456 kts 207°
2026-05-05 19:24 -16.13743 -44.37793 30191 ft 456 kts 207°
2026-05-05 19:24 -16.19466 -44.40661 30186 ft 457 kts 207°
2026-05-05 19:25 -16.25213 -44.43542 30190 ft 456 kts 207°
2026-05-05 19:25 -16.30917 -44.46402 30188 ft 455 kts 207°
2026-05-05 19:26 -16.36642 -44.49276 30182 ft 456 kts 207°
2026-05-05 19:26 -16.42396 -44.52166 30178 ft 456 kts 207°
2026-05-05 19:27 -16.48117 -44.55041 30177 ft 454 kts 207°
2026-05-05 19:27 -16.53826 -44.57912 30177 ft 455 kts 207°
2026-05-05 19:28 -16.59567 -44.60801 30177 ft 455 kts 207°
2026-05-05 19:28 -16.65271 -44.63673 30179 ft 454 kts 207°
2026-05-05 19:29 -16.71019 -44.66570 30180 ft 454 kts 207°
2026-05-05 19:29 -16.76730 -44.69450 30176 ft 456 kts 207°
2026-05-05 19:30 -16.82465 -44.72343 30168 ft 453 kts 207°
2026-05-05 19:30 -16.88144 -44.75251 30163 ft 452 kts 208°
2026-05-05 19:31 -16.93832 -44.78205 30163 ft 453 kts 208°
2026-05-05 19:31 -16.99484 -44.81144 30156 ft 452 kts 208°
2026-05-05 19:32 -17.05115 -44.84074 30161 ft 453 kts 208°
2026-05-05 19:32 -17.10767 -44.87017 30160 ft 453 kts 208°
2026-05-05 19:33 -17.16454 -44.89980 30163 ft 452 kts 208°
2026-05-05 19:33 -17.22141 -44.92944 30168 ft 454 kts 208°
2026-05-05 19:34 -17.27782 -44.95887 30162 ft 452 kts 208°
2026-05-05 19:35 -17.36249 -45.00309 30158 ft 451 kts 208°
2026-05-05 19:35 -17.41882 -45.03291 30155 ft 451 kts 209°
2026-05-05 19:36 -17.47483 -45.06382 30156 ft 451 kts 209°
2026-05-05 19:36 -17.53078 -45.09467 30160 ft 451 kts 208°
2026-05-05 19:37 -17.58636 -45.12533 30167 ft 451 kts 208°
2026-05-05 19:37 -17.64214 -45.15612 30172 ft 450 kts 209°
2026-05-05 19:38 -17.69834 -45.18611 30174 ft 449 kts 207°
2026-05-05 19:38 -17.75453 -45.21525 30179 ft 450 kts 207°
2026-05-05 19:39 -17.81119 -45.24463 30178 ft 450 kts 207°
2026-05-05 19:39 -17.86749 -45.27385 30178 ft 450 kts 207°
2026-05-05 19:40 -17.92411 -45.30327 30168 ft 450 kts 207°
2026-05-05 19:40 -17.98050 -45.33258 30172 ft 450 kts 207°
2026-05-05 19:41 -18.03703 -45.36199 30174 ft 449 kts 207°
2026-05-05 19:41 -18.09321 -45.39122 30176 ft 451 kts 207°
2026-05-05 19:42 -18.15026 -45.42092 30182 ft 450 kts 207°
2026-05-05 19:42 -18.20652 -45.45024 30182 ft 449 kts 207°
2026-05-05 19:43 -18.26291 -45.47964 30184 ft 448 kts 207°
2026-05-05 19:43 -18.31900 -45.50891 30187 ft 449 kts 207°
2026-05-05 19:44 -18.37558 -45.53846 30190 ft 449 kts 207°
2026-05-05 19:44 -18.43166 -45.56776 30192 ft 449 kts 207°
2026-05-05 19:45 -18.48710 -45.59868 30195 ft 449 kts 208°
2026-05-05 19:45 -18.54274 -45.63007 30201 ft 449 kts 208°
2026-05-05 19:46 -18.59795 -45.66123 30207 ft 449 kts 209°
2026-05-05 19:46 -18.65349 -45.69260 30221 ft 451 kts 209°
2026-05-05 19:47 -18.70907 -45.72400 30221 ft 449 kts 209°
2026-05-05 19:47 -18.76427 -45.75522 30228 ft 449 kts 209°
2026-05-05 19:48 -18.81926 -45.78634 30230 ft 449 kts 209°
2026-05-05 19:48 -18.87476 -45.81781 30230 ft 447 kts 209°
2026-05-05 19:49 -18.92987 -45.84910 30231 ft 447 kts 209°
2026-05-05 19:49 -18.98477 -45.88029 30228 ft 449 kts 209°
2026-05-05 19:50 -19.03990 -45.91164 30238 ft 448 kts 209°
2026-05-05 19:50 -19.09514 -45.94307 30240 ft 448 kts 209°
2026-05-05 19:51 -19.15048 -45.97458 30248 ft 451 kts 208°
2026-05-05 19:51 -19.20597 -46.00619 30255 ft 451 kts 208°
2026-05-05 19:52 -19.26148 -46.03781 30252 ft 448 kts 209°
2026-05-05 19:52 -19.31645 -46.06915 30252 ft 448 kts 209°
2026-05-05 19:53 -19.37146 -46.10055 30254 ft 449 kts 209°
2026-05-05 19:53 -19.42663 -46.13206 30252 ft 448 kts 208°
2026-05-05 19:54 -19.48204 -46.16373 30255 ft 449 kts 209°
2026-05-05 19:54 -19.53726 -46.19532 30258 ft 449 kts 209°
2026-05-05 19:55 -19.59238 -46.22687 30258 ft 449 kts 209°
2026-05-05 19:55 -19.64760 -46.25850 30256 ft 449 kts 209°
2026-05-05 19:56 -19.70296 -46.29024 30258 ft 450 kts 208°
2026-05-05 19:56 -19.75816 -46.32192 30260 ft 449 kts 209°
2026-05-05 19:57 -19.81322 -46.35356 30263 ft 449 kts 208°
2026-05-05 19:57 -19.86866 -46.38544 30262 ft 449 kts 208°
2026-05-05 19:58 -19.92370 -46.41711 30268 ft 449 kts 208°
2026-05-05 19:58 -19.97911 -46.44902 30271 ft 450 kts 208°
2026-05-05 19:59 -20.03426 -46.48080 30276 ft 448 kts 209°
2026-05-05 19:59 -20.08909 -46.51244 30284 ft 448 kts 208°
2026-05-05 20:00 -20.14495 -46.54468 30288 ft 450 kts 209°
2026-05-05 20:00 -20.19988 -46.57642 30280 ft 449 kts 209°
2026-05-05 20:01 -20.25522 -46.60842 30284 ft 449 kts 208°
2026-05-05 20:01 -20.31036 -46.64032 30277 ft 450 kts 208°
2026-05-05 20:02 -20.36553 -46.67228 30280 ft 450 kts 209°
2026-05-05 20:02 -20.42102 -46.70444 30263 ft 449 kts 209°
2026-05-05 20:03 -20.47608 -46.73638 30251 ft 449 kts 209°
2026-05-05 20:03 -20.53151 -46.76857 30238 ft 450 kts 209°
2026-05-05 20:04 -20.58649 -46.80051 30246 ft 449 kts 209°
2026-05-05 20:04 -20.64180 -46.83268 30262 ft 450 kts 209°
2026-05-05 20:05 -20.69712 -46.86488 30265 ft 451 kts 209°
2026-05-05 20:05 -20.75234 -46.89706 30267 ft 452 kts 209°
2026-05-05 20:06 -20.80767 -46.92932 30272 ft 450 kts 209°
2026-05-05 20:06 -20.86297 -46.96158 30275 ft 450 kts 209°
2026-05-05 20:07 -20.91840 -46.99396 30276 ft 450 kts 209°
2026-05-05 20:07 -20.97362 -47.02624 30273 ft 450 kts 209°
2026-05-05 20:08 -21.02858 -47.05840 30274 ft 451 kts 209°
2026-05-05 20:08 -21.08386 -47.09076 30265 ft 449 kts 209°
2026-05-05 20:09 -21.13878 -47.12295 30268 ft 449 kts 209°
2026-05-05 20:09 -21.19436 -47.15557 30259 ft 451 kts 209°
2026-05-05 20:10 -21.24939 -47.18787 30264 ft 451 kts 209°
2026-05-05 20:10 -21.30447 -47.22024 30251 ft 449 kts 209°
2026-05-05 20:11 -21.35553 -47.25896 30253 ft 449 kts 225°
2026-05-05 20:11 -21.39255 -47.31300 30241 ft 451 kts 237°
2026-05-05 20:12 -21.42496 -47.37087 30231 ft 451 kts 237°
2026-05-05 20:12 -21.45703 -47.42879 30225 ft 449 kts 237°
2026-05-05 20:13 -21.48884 -47.48650 30233 ft 450 kts 238°
2026-05-05 20:13 -21.52070 -47.54445 30232 ft 449 kts 238°
2026-05-05 20:14 -21.55261 -47.60260 30216 ft 451 kts 238°
2026-05-05 20:14 -21.58454 -47.66090 30207 ft 450 kts 238°
2026-05-05 20:15 -21.61642 -47.71917 30201 ft 450 kts 238°
2026-05-05 20:15 -21.64828 -47.77751 30195 ft 452 kts 238°
2026-05-05 20:16 -21.67986 -47.83542 30187 ft 449 kts 238°
2026-05-05 20:16 -21.71163 -47.89371 30187 ft 450 kts 238°
2026-05-05 20:17 -21.74326 -47.95181 30185 ft 449 kts 238°
2026-05-05 20:17 -21.77506 -48.01019 30187 ft 448 kts 238°
2026-05-05 20:18 -21.80673 -48.06846 30196 ft 451 kts 238°
2026-05-05 20:18 -21.83817 -48.12652 30188 ft 449 kts 238°
2026-05-05 20:19 -21.86981 -48.18494 30188 ft 450 kts 238°
2026-05-05 20:19 -21.90133 -48.24313 30192 ft 451 kts 238°
2026-05-05 20:20 -21.93306 -48.30175 30180 ft 449 kts 238°
2026-05-05 20:20 -21.96455 -48.36001 30175 ft 449 kts 238°
2026-05-05 20:21 -21.99617 -48.41856 30172 ft 450 kts 238°
2026-05-05 20:21 -22.02758 -48.47681 30160 ft 448 kts 238°
2026-05-05 20:22 -22.05901 -48.53512 30165 ft 448 kts 238°
2026-05-05 20:22 -22.09054 -48.59373 30161 ft 450 kts 238°
2026-05-05 20:23 -22.12214 -48.65251 30164 ft 450 kts 238°
2026-05-05 20:23 -22.15372 -48.71131 30174 ft 451 kts 238°
2026-05-05 20:24 -22.18520 -48.77002 30171 ft 449 kts 238°
2026-05-05 20:24 -22.21656 -48.82858 30172 ft 449 kts 238°
2026-05-05 20:25 -22.24775 -48.88688 30173 ft 448 kts 238°
2026-05-05 20:25 -22.27899 -48.94534 30179 ft 447 kts 238°
2026-05-05 20:26 -22.31023 -49.00386 30185 ft 447 kts 238°
2026-05-05 20:26 -22.34130 -49.06214 30186 ft 447 kts 238°
2026-05-05 20:27 -22.37269 -49.12106 30190 ft 450 kts 238°
2026-05-05 20:27 -22.40332 -49.17977 30186 ft 449 kts 240°
2026-05-05 20:28 -22.43264 -49.23927 30185 ft 447 kts 240°
2026-05-05 20:28 -22.46195 -49.29871 30182 ft 447 kts 240°
2026-05-05 20:29 -22.49132 -49.35830 30178 ft 448 kts 240°
2026-05-05 20:29 -22.52056 -49.41769 30176 ft 445 kts 240°
2026-05-05 20:30 -22.54989 -49.47726 30171 ft 447 kts 240°
2026-05-05 20:30 -22.57901 -49.53649 30174 ft 446 kts 240°
2026-05-05 20:31 -22.60833 -49.59622 30167 ft 448 kts 240°
2026-05-05 20:31 -22.63763 -49.65596 30163 ft 447 kts 240°
2026-05-05 20:32 -22.66695 -49.71581 30169 ft 446 kts 240°
2026-05-05 20:32 -22.69589 -49.77494 30165 ft 446 kts 240°
2026-05-05 20:33 -22.72514 -49.83481 30162 ft 447 kts 240°
2026-05-05 20:33 -22.75420 -49.89451 30158 ft 445 kts 240°
2026-05-05 20:34 -22.78299 -49.95375 30160 ft 445 kts 240°
2026-05-05 20:34 -22.81199 -50.01350 30160 ft 446 kts 240°
2026-05-05 20:35 -22.84099 -50.07330 30154 ft 446 kts 241°
2026-05-05 20:35 -22.86983 -50.13285 30148 ft 446 kts 240°
2026-05-05 20:36 -22.89869 -50.19253 30149 ft 446 kts 240°
2026-05-05 20:36 -22.92767 -50.25248 30150 ft 445 kts 240°
2026-05-05 20:37 -22.95642 -50.31208 30150 ft 446 kts 240°
2026-05-05 20:37 -22.98521 -50.37179 30142 ft 445 kts 240°
2026-05-05 20:38 -23.01404 -50.43168 30142 ft 445 kts 240°
2026-05-05 20:38 -23.04276 -50.49138 30137 ft 444 kts 240°
2026-05-05 20:39 -23.07130 -50.55073 30134 ft 444 kts 240°
2026-05-05 20:39 -23.09997 -50.61042 30134 ft 446 kts 240°
2026-05-05 20:40 -23.12890 -50.67074 30143 ft 445 kts 241°
2026-05-05 20:40 -23.15766 -50.73077 30148 ft 444 kts 241°
2026-05-05 20:41 -23.18611 -50.79022 30147 ft 444 kts 241°
2026-05-05 20:41 -23.21465 -50.84992 30154 ft 445 kts 241°
2026-05-05 20:42 -23.24321 -50.90975 30146 ft 443 kts 241°
2026-05-05 20:42 -23.27160 -50.96930 30153 ft 443 kts 241°
2026-05-05 20:43 -23.30006 -51.02905 30149 ft 444 kts 241°
2026-05-05 20:43 -23.32868 -51.08919 30150 ft 444 kts 241°
2026-05-05 20:44 -23.36295 -51.14493 30160 ft 441 kts 232°
2026-05-05 20:44 -23.39994 -51.19854 30156 ft 443 kts 232°
2026-05-05 20:45 -23.45560 -51.27885 30153 ft 442 kts 232°
2026-05-05 20:45 -23.49292 -51.33265 30154 ft 442 kts 232°
2026-05-05 20:46 -23.53010 -51.38616 30153 ft 441 kts 232°
2026-05-05 20:46 -23.56752 -51.43898 30152 ft 442 kts 232°
2026-05-05 20:47 -23.60522 -51.49229 30147 ft 441 kts 232°
2026-05-05 20:47 -23.64271 -51.54536 30146 ft 442 kts 232°
2026-05-05 20:48 -23.68031 -51.59864 30141 ft 441 kts 232°
2026-05-05 20:48 -23.71777 -51.65177 30136 ft 441 kts 232°
2026-05-05 20:49 -23.75548 -51.70517 30135 ft 441 kts 232°
2026-05-05 20:49 -23.79325 -51.75810 30131 ft 440 kts 232°
2026-05-05 20:50 -23.83111 -51.81123 30123 ft 441 kts 232°
2026-05-05 20:50 -23.86880 -51.86418 30111 ft 442 kts 232°
2026-05-05 20:51 -23.90653 -51.91724 30105 ft 441 kts 232°
2026-05-05 20:51 -23.94413 -51.97018 30102 ft 440 kts 232°
2026-05-05 20:52 -23.98184 -52.02333 30094 ft 441 kts 232°
2026-05-05 20:52 -24.01944 -52.07637 30100 ft 440 kts 232°
2026-05-05 20:53 -24.05695 -52.12957 30109 ft 441 kts 233°
2026-05-05 20:53 -24.09339 -52.18341 30117 ft 441 kts 233°
2026-05-05 20:54 -24.13022 -52.23782 30126 ft 440 kts 233°
2026-05-05 20:54 -24.16669 -52.29176 30132 ft 439 kts 233°
2026-05-05 20:55 -24.20302 -52.34553 30140 ft 441 kts 233°
2026-05-05 20:55 -24.23964 -52.39977 30140 ft 441 kts 233°
2026-05-05 20:56 -24.27628 -52.45385 30147 ft 441 kts 233°
2026-05-05 20:56 -24.31300 -52.50813 30145 ft 441 kts 233°
2026-05-05 20:57 -24.34961 -52.56231 30142 ft 442 kts 233°
2026-05-05 20:57 -24.38633 -52.61669 30130 ft 442 kts 233°
2026-05-05 20:58 -24.42323 -52.67142 30144 ft 442 kts 233°
2026-05-05 20:58 -24.45986 -52.72582 30132 ft 441 kts 234°
2026-05-05 20:59 -24.49628 -52.78046 30128 ft 440 kts 234°
2026-05-05 20:59 -24.53250 -52.83485 30122 ft 440 kts 234°
2026-05-05 21:00 -24.56859 -52.88911 30114 ft 440 kts 234°
2026-05-05 21:00 -24.60491 -52.94377 30105 ft 440 kts 234°
2026-05-05 21:01 -24.64094 -52.99805 30105 ft 441 kts 234°
2026-05-05 21:01 -24.67713 -53.05263 30104 ft 439 kts 234°
2026-05-05 21:02 -24.71320 -53.10684 30108 ft 440 kts 234°
2026-05-05 21:02 -24.74951 -53.16143 30124 ft 438 kts 234°
2026-05-05 21:03 -24.78539 -53.21542 30142 ft 437 kts 234°
2026-05-05 21:03 -24.82134 -53.26960 30152 ft 436 kts 234°
2026-05-05 21:04 -24.85704 -53.32346 30155 ft 438 kts 234°
2026-05-05 21:04 -24.89295 -53.37768 30157 ft 436 kts 234°
2026-05-05 21:05 -24.92887 -53.43200 30161 ft 437 kts 234°
2026-05-05 21:05 -24.96484 -53.48645 30172 ft 436 kts 234°
2026-05-05 21:06 -25.00036 -53.54027 30169 ft 435 kts 234°
2026-05-05 21:06 -25.03617 -53.59458 30163 ft 436 kts 234°
2026-05-05 21:07 -25.07187 -53.64881 30148 ft 435 kts 234°
2026-05-05 21:07 -25.10778 -53.70341 30140 ft 435 kts 235°
2026-05-05 21:08 -25.14326 -53.75755 30134 ft 435 kts 235°
2026-05-05 21:08 -25.17873 -53.81197 30119 ft 438 kts 235°
2026-05-05 21:09 -25.21457 -53.86701 30113 ft 437 kts 236°
2026-05-05 21:09 -25.24809 -53.92278 30099 ft 436 kts 238°
2026-05-05 21:10 -25.28111 -53.97966 30088 ft 437 kts 238°
2026-05-05 21:10 -25.31383 -54.03611 30079 ft 435 kts 238°
2026-05-05 21:11 -25.34655 -54.09261 30068 ft 435 kts 238°
2026-05-05 21:11 -25.37949 -54.14951 30056 ft 434 kts 238°
2026-05-05 21:12 -25.41209 -54.20590 30045 ft 435 kts 238°
2026-05-05 21:12 -25.44496 -54.26284 30041 ft 435 kts 238°
2026-05-05 21:13 -25.47761 -54.31945 30040 ft 435 kts 238°
2026-05-05 21:13 -25.51001 -54.37573 30041 ft 434 kts 238°
2026-05-05 21:14 -25.54268 -54.43251 30041 ft 434 kts 239°
2026-05-05 21:14 -25.57504 -54.48884 30035 ft 434 kts 239°
2026-05-05 21:15 -25.60248 -54.54804 30039 ft 433 kts 244°
2026-05-05 21:15 -25.62878 -54.60844 30035 ft 433 kts 244°
2026-05-05 21:16 -25.65499 -54.66895 30043 ft 434 kts 245°
2026-05-05 21:16 -25.68106 -54.72930 30044 ft 433 kts 245°
2026-05-05 21:17 -25.70707 -54.78962 30040 ft 432 kts 245°
2026-05-05 21:17 -25.73285 -54.84949 30034 ft 433 kts 245°
2026-05-05 21:18 -25.75887 -54.91002 30029 ft 433 kts 245°
2026-05-05 21:18 -25.78465 -54.97006 30025 ft 432 kts 245°
2026-05-05 21:19 -25.81049 -55.03036 30020 ft 433 kts 245°
2026-05-05 21:19 -25.83627 -55.09058 30016 ft 432 kts 245°
2026-05-05 21:20 -25.86199 -55.15073 30015 ft 430 kts 245°
2026-05-05 21:20 -25.88762 -55.21079 30012 ft 430 kts 245°
2026-05-05 21:21 -25.91176 -55.26741 30012 ft 431 kts 245°
2026-05-05 21:21 -25.93737 -55.32758 30012 ft 431 kts 245°
2026-05-05 21:22 -25.96300 -55.38788 30016 ft 432 kts 245°
2026-05-05 21:22 -25.98850 -55.44793 30012 ft 431 kts 245°
2026-05-05 21:23 -26.01412 -55.50837 30016 ft 434 kts 245°
2026-05-05 21:23 -26.03987 -55.56921 30010 ft 432 kts 245°
2026-05-05 21:24 -26.06538 -55.62954 30008 ft 431 kts 245°
2026-05-05 21:24 -26.09092 -55.69005 30010 ft 432 kts 245°
2026-05-05 21:25 -26.11649 -55.75070 30012 ft 432 kts 246°
2026-05-05 21:25 -26.14193 -55.81116 30006 ft 430 kts 246°
2026-05-05 21:26 -26.16718 -55.87121 29998 ft 430 kts 246°
2026-05-05 21:26 -26.19251 -55.93156 29991 ft 430 kts 246°
2026-05-05 21:27 -26.21793 -55.99220 29984 ft 431 kts 246°
2026-05-05 21:27 -26.24316 -56.05249 29982 ft 431 kts 246°
2026-05-05 21:28 -26.26838 -56.11282 29979 ft 430 kts 246°
2026-05-05 21:28 -26.29372 -56.17355 29973 ft 430 kts 246°
2026-05-05 21:29 -26.31883 -56.23378 29973 ft 430 kts 246°
2026-05-05 21:29 -26.34389 -56.29400 29969 ft 429 kts 246°
2026-05-05 21:30 -26.36897 -56.35434 29970 ft 431 kts 246°
2026-05-05 21:30 -26.39412 -56.41495 29966 ft 431 kts 246°
2026-05-05 21:31 -26.41929 -56.47567 29959 ft 429 kts 245°
2026-05-05 21:31 -26.44414 -56.53574 29953 ft 429 kts 246°
2026-05-05 21:32 -26.46929 -56.59663 29951 ft 429 kts 246°
2026-05-05 21:32 -26.49415 -56.65686 29946 ft 428 kts 246°
2026-05-05 21:33 -26.51910 -56.71744 29949 ft 427 kts 246°
2026-05-05 21:33 -26.54379 -56.77743 29945 ft 426 kts 246°
2026-05-05 21:34 -26.56854 -56.83767 29952 ft 428 kts 246°
2026-05-05 21:34 -26.59341 -56.89832 29941 ft 426 kts 246°
2026-05-05 21:35 -26.61795 -56.95826 29942 ft 426 kts 246°
2026-05-05 21:35 -26.64250 -57.01826 29936 ft 425 kts 246°
2026-05-05 21:36 -26.66704 -57.07835 29940 ft 425 kts 246°
2026-05-05 21:36 -26.69147 -57.13826 29935 ft 425 kts 246°
2026-05-05 21:37 -26.71592 -57.19828 29935 ft 424 kts 246°
2026-05-05 21:37 -26.74046 -57.25865 29925 ft 423 kts 246°
2026-05-05 21:38 -26.76826 -57.31617 29938 ft 426 kts 234°
2026-05-05 21:38 -26.80529 -57.36837 29922 ft 427 kts 234°
2026-05-05 21:39 -26.84218 -57.42027 29914 ft 426 kts 233°
2026-05-05 21:39 -26.87896 -57.47199 29917 ft 426 kts 234°
2026-05-05 21:40 -26.91588 -57.52388 29914 ft 424 kts 233°
2026-05-05 21:40 -26.95274 -57.57574 29915 ft 425 kts 234°
2026-05-05 21:41 -26.98969 -57.62776 29917 ft 424 kts 234°
2026-05-05 21:41 -27.02661 -57.67982 29932 ft 425 kts 234°
2026-05-05 21:42 -27.06328 -57.73155 29928 ft 426 kts 234°
2026-05-05 21:42 -27.10005 -57.78352 29936 ft 425 kts 234°
2026-05-05 21:43 -27.13670 -57.83536 29944 ft 425 kts 234°
2026-05-05 21:43 -27.17364 -57.88768 29939 ft 425 kts 234°
2026-05-05 21:44 -27.21035 -57.93971 29934 ft 424 kts 234°
2026-05-05 21:44 -27.24714 -57.99194 29934 ft 425 kts 234°
2026-05-05 21:45 -27.28337 -58.04342 29931 ft 425 kts 234°